| time (UTC) | temp C | wind direction | speed KPH | gust KPH | rain 1hr cm | rain 24hr cm | rain mn cm | humidity % | barometer mb |
| 20260504141253 | 16 | 255 | 1.6 | 0.0 | 0.00 | 0.00 | 0.00 | 100 | |
| 20260504140753 | 15 | 226 | 6.4 | 0.0 | 0.00 | 0.00 | 0.00 | 100 | |
| 20260504140725 | 15 | 187 | 6.4 | 0.0 | 0.00 | 0.00 | 0.00 | 100 | |
| 20260504140253 | 15 | 200 | 11.3 | 0.0 | 0.00 | 0.00 | 0.00 | 100 | |
| 20260504130753 | 13 | 303 | 1.6 | 0.0 | 0.00 | 0.00 | 0.00 | 100 | |
| 20260504130726 | 13 | 318 | 1.6 | 0.0 | 0.00 | 0.00 | 0.00 | 100 | |
| 20260504130253 | 13 | 230 | 1.6 | 0.0 | 0.00 | 0.00 | 0.00 | 100 | |
| 20260504120253 | 9 | 130 | 1.6 | 0.0 | 0.00 | 0.00 | 0.00 | 100 | |
| 20260504100254 | 7 | 232 | 1.6 | 0.0 | 0.00 | 0.00 | 0.00 | 100 | |
| 20260504081753 | 8 | 227 | 1.6 | 0.0 | 0.00 | 0.00 | 0.00 | 100 | |
| 20260504081726 | 8 | 230 | 3.2 | 0.0 | 0.00 | 0.00 | 0.00 | 100 | |
| 20260504081253 | 8 | 259 | 1.6 | 0.0 | 0.00 | 0.00 | 0.00 | 100 | |
| 20260504080725 | 8 | 130 | 3.2 | 0.0 | 0.00 | 0.00 | 0.00 | 100 | |
| 20260504080253 | 8 | 106 | 1.6 | 0.0 | 0.00 | 0.00 | 0.00 | 100 | |
| 20260504050724 | 10 | 226 | 1.6 | 0.0 | 0.00 | 0.00 | 0.00 | 100 | |
| 20260504050253 | 10 | 236 | 1.6 | 0.0 | 0.00 | 0.00 | 0.00 | 100 | |
| 20260504045753 | 10 | 234 | 1.6 | 0.0 | 0.00 | 0.00 | 0.00 | 100 | |
| 20260504045725 | 10 | 238 | 1.6 | 0.0 | 0.00 | 0.00 | 0.00 | 100 | |
| 20260504045253 | 10 | 225 | 3.2 | 0.0 | 0.00 | 0.00 | 0.00 | 100 | |
| 20260504044753 | 10 | 206 | 3.2 | 0.0 | 0.00 | 0.00 | 0.00 | 100 | |
| 20260504044724 | 10 | 203 | 1.6 | 0.0 | 0.00 | 0.00 | 0.00 | 100 | |
| 20260504044253 | 10 | 213 | 1.6 | 0.0 | 0.00 | 0.00 | 0.00 | 100 | |
| 20260504043753 | 10 | 218 | 3.2 | 0.0 | 0.00 | 0.00 | 0.00 | 100 | |
| 20260504043724 | 10 | 203 | 3.2 | 0.0 | 0.00 | 0.00 | 0.00 | 100 | |
| 20260504043253 | 10 | 223 | 3.2 | 0.0 | 0.00 | 0.00 | 0.00 | 100 | |
| 20260504042753 | 11 | 236 | 1.6 | 0.0 | 0.00 | 0.00 | 0.00 | 100 | |
| 20260504042726 | 11 | 237 | 1.6 | 0.0 | 0.00 | 0.00 | 0.00 | 100 | |
| 20260504042253 | 11 | 246 | 3.2 | 0.0 | 0.00 | 0.00 | 0.00 | 100 | |
| 20260504041753 | 11 | 221 | 1.6 | 0.0 | 0.00 | 0.00 | 0.00 | 100 | |
| 20260504041253 | 11 | 240 | 3.2 | 0.0 | 0.00 | 0.00 | 0.00 | 100 | |
| 20260504040753 | 11 | 221 | 1.6 | 0.0 | 0.00 | 0.00 | 0.00 | 100 | |
| 20260504040724 | 11 | 219 | 1.6 | 0.0 | 0.00 | 0.00 | 0.00 | 100 | |
| 20260504040253 | 11 | 242 | 1.6 | 0.0 | 0.00 | 0.00 | 0.00 | 100 | |
| 20260504035724 | 11 | 263 | 3.2 | 0.0 | 0.00 | 0.00 | 0.00 | 100 | |
| 20260504035253 | 11 | 260 | 1.6 | 0.0 | 0.00 | 0.00 | 0.00 | 100 | |
| 20260504034753 | 12 | 232 | 1.6 | 0.0 | 0.00 | 0.00 | 0.00 | 100 | |
| 20260504034726 | 12 | 238 | 1.6 | 0.0 | 0.00 | 0.00 | 0.00 | 100 | |
| 20260504034253 | 12 | 244 | 1.6 | 0.0 | 0.00 | 0.00 | 0.00 | 100 | |
| 20260504033753 | 12 | 241 | 1.6 | 0.0 | 0.00 | 0.00 | 0.00 | 100 | |
| 20260504033724 | 12 | 245 | 1.6 | 0.0 | 0.00 | 0.00 | 0.00 | 100 | |
| 20260504033253 | 12 | 227 | 1.6 | 0.0 | 0.00 | 0.00 | 0.00 | 100 | |
| 20260504032753 | 12 | 217 | 1.6 | 0.0 | 0.00 | 0.00 | 0.00 | 100 | |
| 20260504032253 | 12 | 236 | 1.6 | 0.0 | 0.00 | 0.00 | 0.00 | 100 | |
| 20260504031753 | 12 | 223 | 1.6 | 0.0 | 0.00 | 0.00 | 0.00 | 100 | |
| 20260504031724 | 12 | 219 | 1.6 | 0.0 | 0.00 | 0.00 | 0.00 | 100 | |
| 20260504031253 | 12 | 238 | 1.6 | 0.0 | 0.00 | 0.00 | 0.00 | 100 | |
| 20260504030753 | 12 | 227 | 1.6 | 0.0 | 0.00 | 0.00 | 0.00 | 100 | |
| 20260504030724 | 12 | 222 | 1.6 | 0.0 | 0.00 | 0.00 | 0.00 | 100 | |
| 20260504030253 | 12 | 234 | 1.6 | 0.0 | 0.00 | 0.00 | 0.00 | 100 | |
| 20260504025754 | 12 | 264 | 1.6 | 0.0 | 0.00 | 0.00 | 0.00 | 100 | |
| 20260504025725 | 12 | 267 | 1.6 | 0.0 | 0.00 | 0.00 | 0.00 | 100 | |
| 20260504025254 | 12 | 237 | 1.6 | 0.0 | 0.00 | 0.00 | 0.00 | 100 | |
| 20260504024734 | 12 | 267 | 1.6 | 0.0 | 0.00 | 0.00 | 0.00 | 100 | |
| 20260504024254 | 12 | 255 | 3.2 | 0.0 | 0.00 | 0.00 | 0.00 | 100 | |
| 20260504023754 | 13 | 248 | 3.2 | 0.0 | 0.00 | 0.00 | 0.00 | 100 | |
| 20260504023727 | 13 | 242 | 3.2 | 0.0 | 0.00 | 0.00 | 0.00 | 100 | |
| 20260504023254 | 13 | 226 | 1.6 | 0.0 | 0.00 | 0.00 | 0.00 | 100 | |
| 20260504022725 | 13 | 187 | 1.6 | 0.0 | 0.00 | 0.00 | 0.00 | 100 | |
| 20260504022254 | 13 | 188 | 1.6 | 0.0 | 0.00 | 0.00 | 0.00 | 100 | |
| 20260504021725 | 13 | 199 | 1.6 | 0.0 | 0.00 | 0.00 | 0.00 | 100 | |
| 20260504021254 | 13 | 226 | 3.2 | 0.0 | 0.00 | 0.00 | 0.00 | 100 | |
| 20260504020754 | 14 | 219 | 1.6 | 0.0 | 0.00 | 0.00 | 0.00 | 100 | |
| 20260504020726 | 14 | 195 | 1.6 | 0.0 | 0.00 | 0.00 | 0.00 | 100 | |
| 20260504015727 | 15 | 291 | 1.6 | 0.0 | 0.00 | 0.00 | 0.00 | 100 | |
| 20260504015254 | 15 | 291 | 1.6 | 0.0 | 0.00 | 0.00 | 0.00 | 100 | |
| 20260504014726 | 15 | 284 | 1.6 | 0.0 | 0.00 | 0.00 | 0.00 | 100 | |
| 20260504014254 | 15 | 284 | 4.8 | 0.0 | 0.00 | 0.00 | 0.00 | 100 | |
| 20260504013753 | 15 | 330 | 1.6 | 0.0 | 0.00 | 0.00 | 0.00 | 100 | |
| 20260504013725 | 15 | 340 | 3.2 | 0.0 | 0.00 | 0.00 | 0.00 | 100 | |
| 20260504013253 | 15 | 321 | 3.2 | 0.0 | 0.00 | 0.00 | 0.00 | 100 | |
| 20260504012754 | 15 | 303 | 1.6 | 0.0 | 0.00 | 0.00 | 0.00 | 100 | |
| 20260504012726 | 15 | 291 | 1.6 | 0.0 | 0.00 | 0.00 | 0.00 | 100 | |
| 20260504012253 | 15 | 286 | 3.2 | 0.0 | 0.00 | 0.00 | 0.00 | 100 | |
| 20260504011753 | 15 | 294 | 3.2 | 0.0 | 0.00 | 0.00 | 0.00 | 100 | |
| 20260504011726 | 16 | 286 | 1.6 | 0.0 | 0.00 | 0.00 | 0.00 | 100 | |
| 20260504011253 | 16 | 252 | 1.6 | 0.0 | 0.00 | 0.00 | 0.00 | 100 | |
| 20260504010753 | 16 | 283 | 3.2 | 0.0 | 0.00 | 0.00 | 0.00 | 100 | |
| 20260504010725 | 16 | 250 | 1.6 | 0.0 | 0.00 | 0.00 | 0.00 | 100 | |
| 20260504010253 | 16 | 310 | 3.2 | 0.0 | 0.00 | 0.00 | 0.00 | 100 | |
| 20260504005753 | 16 | 303 | 4.8 | 0.0 | 0.00 | 0.00 | 0.00 | 100 | |
| 20260504005726 | 16 | 300 | 1.6 | 0.0 | 0.00 | 0.00 | 0.00 | 100 | |
| 20260504005253 | 16 | 303 | 3.2 | 0.0 | 0.00 | 0.00 | 0.00 | 100 | |
| 20260504004753 | 16 | 269 | 1.6 | 0.0 | 0.00 | 0.00 | 0.00 | 100 | |
| 20260504004725 | 16 | 317 | 1.6 | 0.0 | 0.00 | 0.00 | 0.00 | 100 | |
| 20260504004253 | 16 | 309 | 1.6 | 0.0 | 0.00 | 0.00 | 0.00 | 100 | |
| 20260504003753 | 16 | 294 | 4.8 | 0.0 | 0.00 | 0.00 | 0.00 | 100 | |
| 20260504003726 | 16 | 292 | 4.8 | 0.0 | 0.00 | 0.00 | 0.00 | 100 | |
| 20260504003254 | 17 | 283 | 3.2 | 0.0 | 0.00 | 0.00 | 0.00 | 100 | |
| 20260504002753 | 17 | 283 | 8.0 | 0.0 | 0.00 | 0.00 | 0.00 | 100 | |
| 20260504002726 | 17 | 294 | 3.2 | 0.0 | 0.00 | 0.00 | 0.00 | 100 | |
| 20260504002253 | 17 | 283 | 4.8 | 0.0 | 0.00 | 0.00 | 0.00 | 100 | |
| 20260504001753 | 17 | 267 | 3.2 | 0.0 | 0.00 | 0.00 | 0.00 | 100 | |
| 20260504001726 | 17 | 300 | 3.2 | 0.0 | 0.00 | 0.00 | 0.00 | 100 | |
| 20260504001253 | 18 | 315 | 3.2 | 0.0 | 0.00 | 0.00 | 0.00 | 100 | |
| 20260504000753 | 18 | 286 | 4.8 | 0.0 | 0.00 | 0.00 | 0.00 | 100 | |
| 20260504000725 | 18 | 280 | 6.4 | 0.0 | 0.00 | 0.00 | 0.00 | 100 | |
| 20260504000253 | 18 | 19 | 1.6 | 0.0 | 0.00 | 0.00 | 0.00 | 100 | |
| 20260503235753 | 18 | 287 | 6.4 | 0.0 | 0.00 | 0.00 | 0.00 | 100 | |
| 20260503235726 | 18 | 315 | 9.7 | 0.0 | 0.00 | 0.00 | 0.00 | 100 | |
| 20260503235253 | 18 | 278 | 12.9 | 0.0 | 0.00 | 0.00 | 0.00 | 100 | |
| 20260503234753 | 18 | 351 | 12.9 | 0.0 | 0.00 | 0.00 | 0.00 | 100 | |
| 20260503234725 | 18 | 313 | 11.3 | 0.0 | 0.00 | 0.00 | 0.00 | 100 | |
| 20260503234253 | 18 | 303 | 9.7 | 0.0 | 0.00 | 0.00 | 0.00 | 100 | |
| 20260503233753 | 18 | 278 | 8.0 | 0.0 | 0.00 | 0.00 | 0.00 | 100 | |
| 20260503233726 | 18 | 287 | 8.0 | 0.0 | 0.00 | 0.00 | 0.00 | 100 | |
| 20260503233253 | 19 | 314 | 6.4 | 0.0 | 0.00 | 0.00 | 0.00 | 100 | |
| 20260503232753 | 19 | 276 | 12.9 | 0.0 | 0.00 | 0.00 | 0.00 | 100 | |
| 20260503232726 | 19 | 287 | 16.1 | 0.0 | 0.00 | 0.00 | 0.00 | 100 | |
| 20260503232253 | 19 | 279 | 12.9 | 0.0 | 0.00 | 0.00 | 0.00 | 100 | |
| 20260503231753 | 19 | 311 | 1.6 | 0.0 | 0.00 | 0.00 | 0.00 | 100 | |
| 20260503231726 | 19 | 326 | 1.6 | 0.0 | 0.00 | 0.00 | 0.00 | 100 | |
| 20260503231253 | 19 | 307 | 11.3 | 0.0 | 0.00 | 0.00 | 0.00 | 100 | |
| 20260503230753 | 20 | 295 | 8.0 | 0.0 | 0.00 | 0.00 | 0.00 | 100 | |
| 20260503230726 | 20 | 268 | 16.1 | 0.0 | 0.00 | 0.00 | 0.00 | 100 | |
| 20260503230253 | 20 | 330 | 4.8 | 0.0 | 0.00 | 0.00 | 0.00 | 100 | |
| 20260503225753 | 20 | 310 | 6.4 | 0.0 | 0.00 | 0.00 | 0.00 | 100 | |
| 20260503225726 | 20 | 348 | 6.4 | 0.0 | 0.00 | 0.00 | 0.00 | 100 | |
| 20260503225253 | 20 | 305 | 6.4 | 0.0 | 0.00 | 0.00 | 0.00 | 100 | |
| 20260503224753 | 20 | 248 | 9.7 | 0.0 | 0.00 | 0.00 | 0.00 | 100 | |
| 20260503224727 | 20 | 236 | 8.0 | 0.0 | 0.00 | 0.00 | 0.00 | 100 | |
| 20260503224253 | 20 | 286 | 12.9 | 0.0 | 0.00 | 0.00 | 0.00 | 100 | |
| 20260503223753 | 20 | 315 | 14.5 | 0.0 | 0.00 | 0.00 | 0.00 | 100 | |
| 20260503223726 | 20 | 333 | 14.5 | 0.0 | 0.00 | 0.00 | 0.00 | 100 | |
| 20260503223253 | 20 | 349 | 12.9 | 0.0 | 0.00 | 0.00 | 0.00 | 100 | |
| 20260503222753 | 20 | 299 | 17.7 | 0.0 | 0.00 | 0.00 | 0.00 | 100 | |
| 20260503222726 | 20 | 294 | 14.5 | 0.0 | 0.00 | 0.00 | 0.00 | 100 | |
| 20260503222253 | 20 | 303 | 8.0 | 0.0 | 0.00 | 0.00 | 0.00 | 100 | |
| 20260503221753 | 20 | 336 | 8.0 | 0.0 | 0.00 | 0.00 | 0.00 | 100 | |
| 20260503221726 | 20 | 292 | 8.0 | 0.0 | 0.00 | 0.00 | 0.00 | 100 | |
| 20260503221253 | 20 | 225 | 4.8 | 0.0 | 0.00 | 0.00 | 0.00 | 100 | |
| 20260503220753 | 20 | 272 | 11.3 | 0.0 | 0.00 | 0.00 | 0.00 | 100 | |
| 20260503220725 | 20 | 263 | 12.9 | 0.0 | 0.00 | 0.00 | 0.00 | 100 | |
| 20260503220253 | 20 | 282 | 12.9 | 0.0 | 0.00 | 0.00 | 0.00 | 100 | |
| 20260503215753 | 20 | 234 | 4.8 | 0.0 | 0.00 | 0.00 | 0.00 | 100 | |
| 20260503215729 | 20 | 294 | 3.2 | 0.0 | 0.00 | 0.00 | 0.00 | 100 | |
| 20260503215253 | 20 | 279 | 8.0 | 0.0 | 0.00 | 0.00 | 0.00 | 100 |